Regional Weather Roundup
Issued by NWS

Home | Current Version | Previous Version | Text Only | Print | Product List | Glossary Off
Versions: 1 2 3 4 5 6 7 8 9 10 11 12 13 14 15 16 17 18 19 20 21 22 23 24 25 26 27 28 29 30 31 32 33 34 35 36 37 38 39 40 41 42 43 44 45 46 47 48 49 50

000
ASUS43 KLSX 021010
RWRMO

WEATHER SUMMARY FOR MISSOURI
NATIONAL WEATHER SERVICE SPRINGFIELD MO
500 AM CDT WED SEP 02 2015

NOTE: "FAIR" INDICATES FEW OR NO CLOUDS BELOW 12,000 FEET WITH NO
       SIGNIFICANT WEATHER AND/OR OBSTRUCTIONS TO VISIBILITY.
       CURRENT SKY AND/OR WEATHER CONDITIONS ARE NOT AVAILABLE FOR
       CHILLICOTHE AND FARMINGTON.

MOZ001>031-035>038-043-044-053-054-021100-
...NORTHERN AND WESTERN MISSOURI...

CITY           SKY/WX    TMP DP  RH WIND       PRES   REMARKS
KANSAS CTY INT MOCLDY    73  65  75 S9        29.99S
KANSAS C DTWN  PTCLDY    76  65  68 SW9       29.98S
LEE`S SUMMIT   PTCLDY    71  64  78 S8        30.01S
ST JOSEPH      CLOUDY    73  69  87 E5        29.98S
CHILLICOTHE      N/A     69  67  93 CALM      30.02S
KIRKSVILLE     MOCLDY    69  66  90 S6        30.04R

$$
MOZ066>068-077>081-088>096-101>105-021100-
...SOUTHWEST MISSOURI...

CITY           SKY/WX    TMP DP  RH WIND       PRES   REMARKS
SPRINGFIELD    CLEAR     70  65  84 SE10      30.07S
JOPLIN         CLEAR     72  66  81 S10       30.05R

$$
MOZ032>034-039>042-045>050-055>058-069>072-021100-
...CENTRAL MISSOURI...

CITY           SKY/WX    TMP DP  RH WIND       PRES   REMARKS
COLUMBIA       CLEAR     70  69  97 S7        30.06R
JEFFERSON CITY CLEAR     72  68  87 E5        30.05S
ROLLA          CLEAR     71  67  87 S9        30.08R
SEDALIA        CLEAR     70  66  87 S8        30.05R
WHITEMAN AFB   CLEAR     70  68  92 S7        30.02R
OSAGE BEACH    CLEAR     70  66  88 S6        30.07R

$$
MOZ051-052-059>065-021100-
...EAST CENTRAL MISSOURI...

CITY           SKY/WX    TMP DP  RH WIND       PRES   REMARKS
ST LOUIS INTL  CLEAR     76  68  76 CALM      30.08R
SPIRIT OF STL  CLEAR     72  70  93 CALM      30.06R
ST CHARLES     CLEAR     69  68  96 E5        30.06R

$$
MOZ072>076-082>087-097>100-106>115-021100-
...SOUTH CENTRAL AND SOUTHEAST MISSOURI...

CITY           SKY/WX    TMP DP  RH WIND       PRES   REMARKS
CAPE GIRARDEAU PTCLDY    67  66  97 CALM      30.07F FOG
FARMINGTON     CLEAR     68  68 100 CALM      30.12R
WEST PLAINS    CLEAR     69  66  90 CALM      30.12R

$$



USA.gov is the U.S. government's official web portal to all federal, state and local government web resources and services.